Location: Góry Miechowskie
(50.3599°N, 20.1803°E)
Time: 02:58:10
(UTC+00:00)

Resurs 1-4 Rocket - Pass Details

Date: 19 September 2024
Orbit: 798 x 813 km, 98.8° (Epoch: 14 October)

Event Time Altitude Azimuth Distance (km) Brightness Sun altitude
Rises 00:53:10 0° 15° (NNE) 3,320 6.2 -30.3°
Reaches altitude 10° 00:55:30 10° 16° (NNE) 2,385 5.3 -30.0°
Enters shadow 01:00:06 68° 26° (NNE) 861 2.3 -29.5°
